Flag for Australia Weather past 2 weeks in Mount Isa, Queensland, Australia

Now
75 °F

Sunny.


Feels Like: 76 °F
Forecast: 56 / 80 °F
Wind: 12 mph from Southeast

Location: Mount Isa Amo

Current Time: Apr 26, 2015 at 1:15:51 PM

Latest Report: Apr 26, 2015 at 1:00 PM


Visibility: 10 mi

Pressure: 30.07 "Hg

Humidity: 19%

Dew point: 30 °F

Location of Mount IsaLocation

Historic Weather in Mount Isa — Graph

°F

Mount Isa temperature yesterday

Maximum temperature yesterday: 81 °F (at 2:30 PM)
Minimum temperature yesterday: 64 °F (at 6:30 AM)
Average temperature yesterday: 72 °F

Past Weeks' High & Low Weather Summary

 TemperatureHumidityPressure
High100 °F (Apr 13, 2:30 PM)78% (Apr 15, 5:00 AM)30.18 "Hg (Apr 15, 5:00 AM)
Low55 °F (Apr 24, 3:30 AM)7% (Apr 21, 3:30 PM)29.83 "Hg (Apr 13, 3:00 PM)
Average77 °F32%30.00 "Hg
* Reported Apr 11 12:00 Noon — Apr 26 12:00 Noon, Mount Isa, Weather by CustomWeather, © 2015

Note: Actual official high and low records may vary slightly from our data, if they occured in-between our weather recording intervals... More about our weather records

Advertising

Mount Isa weather history for previous 24 hours

 ConditionsComfort  
Time TempWeatherWind HumidityBarometerVisibility
12:00 PM
Sun, Apr 26
73 °FSunny.17 mph22%30.09 "Hg10 mi
11:30 AM72 °FSunny.17 mph25%30.12 "HgN/A
11:00 AM72 °FSunny.18 mph25%30.12 "Hg10 mi
10:30 AM68 °FSunny.18 mph30%30.12 "HgN/A
10:00 AM68 °FSunny.20 mph33%30.15 "Hg10 mi
9:30 AM64 °FSunny.20 mph34%30.15 "HgN/A
9:00 AM63 °FSunny.16 mph37%30.12 "Hg10 mi
8:30 AM61 °FSunny.15 mph39%30.12 "HgN/A
8:00 AM59 °FSunny.14 mph39%30.09 "Hg10 mi
7:00 AM55 °FSunny.10 mph44%30.09 "Hg10 mi
6:30 AM57 °FSunny.12 mph39%30.09 "HgN/A
6:00 AM57 °FSunny.14 mph36%30.09 "Hg10 mi
5:30 AM57 °FClear.14 mph36%30.09 "HgN/A
5:00 AM57 °FClear.12 mph36%30.07 "HgN/A
4:30 AM57 °FClear.12 mph36%30.09 "HgN/A
4:00 AM59 °FClear.10 mph34%30.09 "HgN/A
3:00 AM59 °FClear.12 mph36%30.07 "HgN/A
2:30 AM61 °FClear.10 mph34%30.09 "HgN/A
2:00 AM61 °FClear.8 mph34%30.09 "HgN/A
1:30 AM61 °FClear.6 mph36%30.09 "HgN/A
1:00 AM63 °FClear.7 mph34%30.09 "HgN/A
12:30 AM63 °FClear.8 mph37%30.09 "HgN/A
12:00 AM64 °FClear.10 mph34%30.09 "HgN/A
11:30 PM
Sat, Apr 25
66 °FClear.13 mph30%30.09 "HgN/A
11:00 PM66 °FClear.10 mph32%30.09 "HgN/A
10:30 PM68 °FClear.12 mph30%30.09 "HgN/A
10:00 PM68 °FClear.10 mph30%30.09 "HgN/A
9:30 PM68 °FClear.12 mph28%30.09 "HgN/A
9:00 PM70 °FClear.12 mph25%30.07 "HgN/A
8:00 PM72 °FClear.14 mph22%30.07 "HgN/A
7:00 PM73 °FClear.13 mph20%30.01 "HgN/A
6:30 PM75 °FClear.12 mph18%30.01 "HgN/A
6:00 PM75 °FClear.15 mph18%30.01 "HgN/A
5:30 PM77 °FClear.17 mph17%29.98 "HgN/A
5:00 PM79 °FSunny.20 mph17%29.98 "HgN/A
4:30 PM79 °FSunny.18 mph18%29.98 "HgN/A
4:00 PM79 °FSunny.20 mph18%29.98 "HgN/A
3:30 PM81 °FSunny.17 mph16%29.95 "HgN/A
3:00 PM81 °FSunny.20 mph18%29.95 "HgN/A
2:30 PM81 °FSunny.20 mph18%29.98 "HgN/A
2:00 PM79 °FSunny.21 mph20%29.98 "HgN/A
1:30 PM79 °FSunny.20 mph20%29.98 "HgN/A
1:00 PM79 °FSunny.22 mph20%30.01 "HgN/A
Weather by CustomWeather, © 2015

See weather overviewHow to use our weather pages